| time (UTC) | temp F | wind direction | speed MPH | gust MPH | rain 1hr in | rain 24hr in | rain mn in | humidity % | barometer mb |
| 20260506032508 | 66 | 167 | 2.0 | 12.0 | 0.00 | 0.00 | 0.00 | 60 | 1009.5 |
| 20260506032008 | 66 | 169 | 1.0 | 7.0 | 0.00 | 0.00 | 0.00 | 60 | 1009.4 |
| 20260506031531 | 66 | 185 | 0.0 | 7.0 | 0.00 | 0.00 | 0.00 | 60 | 1009.5 |
| 20260506031008 | 67 | 172 | 0.0 | 9.0 | 0.00 | 0.00 | 0.00 | 59 | 1009.5 |
| 20260506030511 | 67 | 198 | 1.0 | 9.0 | 0.00 | 0.00 | 0.00 | 59 | 1009.5 |
| 20260506030049 | 67 | 186 | 1.0 | 12.0 | 0.00 | 0.00 | 0.00 | 59 | 1009.6 |
| 20260506025510 | 67 | 195 | 1.0 | 12.0 | 0.00 | 0.00 | 0.00 | 59 | 1009.6 |
| 20260506025008 | 67 | 167 | 1.0 | 11.0 | 0.00 | 0.00 | 0.00 | 59 | 1009.5 |
| 20260506024531 | 68 | 186 | 1.0 | 11.0 | 0.00 | 0.00 | 0.00 | 58 | 1009.5 |
| 20260506024002 | 68 | 170 | 1.0 | 8.0 | 0.00 | 0.00 | 0.00 | 58 | 1009.4 |
| 20260506023502 | 68 | 182 | 2.0 | 10.0 | 0.00 | 0.00 | 0.00 | 58 | 1009.3 |
| 20260506023002 | 68 | 148 | 0.0 | 10.0 | 0.00 | 0.00 | 0.00 | 57 | 1009.4 |
| 20260506022503 | 68 | 212 | 1.0 | 8.0 | 0.00 | 0.00 | 0.00 | 57 | 1009.3 |
| 20260506022003 | 69 | 188 | 1.0 | 7.0 | 0.00 | 0.00 | 0.00 | 56 | 1009.3 |
| 20260506021504 | 69 | 169 | 0.0 | 6.0 | 0.00 | 0.00 | 0.00 | 56 | 1009.4 |
| 20260506021003 | 69 | 172 | 0.0 | 6.0 | 0.00 | 0.00 | 0.00 | 56 | 1009.4 |
| 20260506020505 | 69 | 153 | 1.0 | 7.0 | 0.00 | 0.00 | 0.00 | 55 | 1009.4 |
| 20260506020004 | 70 | 181 | 0.0 | 7.0 | 0.00 | 0.00 | 0.00 | 55 | 1009.4 |
| 20260506015504 | 70 | 203 | 0.0 | 6.0 | 0.00 | 0.00 | 0.00 | 54 | 1009.3 |
| 20260506015007 | 70 | 172 | 0.0 | 5.0 | 0.00 | 0.00 | 0.00 | 54 | 1009.3 |
| 20260506014503 | 70 | 189 | 0.0 | 8.0 | 0.00 | 0.00 | 0.00 | 53 | 1009.2 |
| 20260506014003 | 71 | 184 | 0.0 | 8.0 | 0.00 | 0.00 | 0.00 | 53 | 1009.3 |
| 20260506013501 | 71 | 165 | 0.0 | 2.0 | 0.00 | 0.00 | 0.00 | 52 | 1009.3 |
| 20260506013003 | 71 | 122 | 0.0 | 6.0 | 0.00 | 0.00 | 0.00 | 52 | 1009.2 |
| 20260506012502 | 71 | 191 | 0.0 | 6.0 | 0.00 | 0.00 | 0.00 | 51 | 1009.2 |
| 20260506012004 | 71 | 180 | 0.0 | 8.0 | 0.00 | 0.00 | 0.00 | 51 | 1009.1 |
| 20260506011504 | 71 | 117 | 0.0 | 8.0 | 0.00 | 0.00 | 0.00 | 51 | 1009.1 |
| 20260506011006 | 72 | 203 | 0.0 | 7.0 | 0.00 | 0.00 | 0.00 | 51 | 1009.1 |
| 20260506010503 | 72 | 160 | 0.0 | 4.0 | 0.00 | 0.00 | 0.00 | 51 | 1009.1 |
| 20260506010006 | 72 | 176 | 0.0 | 0.0 | 0.00 | 0.00 | 0.00 | 50 | 1009.2 |
| 20260506005505 | 72 | 212 | 0.0 | 3.0 | 0.00 | 0.00 | 0.00 | 50 | 1009.0 |
| 20260506005004 | 72 | 184 | 0.0 | 7.0 | 0.00 | 0.00 | 0.00 | 50 | 1008.8 |
| 20260506004517 | 72 | 217 | 2.0 | 9.0 | 0.00 | 0.00 | 0.00 | 49 | 1008.7 |
| 20260506004004 | 72 | 205 | 3.0 | 9.0 | 0.00 | 0.00 | 0.00 | 49 | 1008.5 |
| 20260506003504 | 73 | 170 | 3.0 | 9.0 | 0.00 | 0.00 | 0.00 | 49 | 1008.3 |
| 20260506003004 | 73 | 186 | 2.0 | 8.0 | 0.00 | 0.00 | 0.00 | 49 | 1008.2 |
| 20260506002505 | 73 | 56 | 1.0 | 15.0 | 0.00 | 0.00 | 0.00 | 49 | 1008.0 |
| 20260506002005 | 73 | 142 | 1.0 | 15.0 | 0.00 | 0.00 | 0.00 | 49 | 1007.8 |
| 20260506001504 | 73 | 192 | 2.0 | 12.0 | 0.00 | 0.00 | 0.00 | 48 | 1007.6 |
| 20260506001002 | 73 | 135 | 2.0 | 14.0 | 0.00 | 0.00 | 0.00 | 48 | 1007.5 |
| 20260506000504 | 74 | 140 | 1.0 | 14.0 | 0.00 | 0.00 | 0.00 | 48 | 1007.5 |
| 20260506000006 | 74 | 167 | 2.0 | 14.0 | 0.00 | 0.00 | 0.00 | 48 | 1007.5 |
| 20260505235503 | 74 | 190 | 1.0 | 11.0 | 0.00 | 0.00 | 0.00 | 47 | 1007.3 |
| 20260505235003 | 75 | 200 | 2.0 | 12.0 | 0.00 | 0.00 | 0.00 | 47 | 1007.3 |
| 20260505234503 | 75 | 134 | 2.0 | 14.0 | 0.00 | 0.00 | 0.00 | 46 | 1007.2 |
| 20260505234001 | 75 | 179 | 3.0 | 14.0 | 0.00 | 0.00 | 0.00 | 46 | 1007.1 |
| 20260505233505 | 76 | 101 | 2.0 | 15.0 | 0.00 | 0.00 | 0.00 | 46 | 1007.0 |
| 20260505233006 | 76 | 183 | 3.0 | 15.0 | 0.00 | 0.00 | 0.00 | 45 | 1006.9 |
| 20260505232503 | 76 | 170 | 2.0 | 15.0 | 0.00 | 0.00 | 0.00 | 45 | 1006.8 |
| 20260505232003 | 76 | 189 | 1.0 | 15.0 | 0.00 | 0.00 | 0.00 | 44 | 1006.7 |
| 20260505231505 | 77 | 193 | 4.0 | 14.0 | 0.00 | 0.00 | 0.00 | 44 | 1006.6 |
| 20260505231006 | 77 | 168 | 1.0 | 15.0 | 0.00 | 0.00 | 0.00 | 43 | 1006.6 |
| 20260505230503 | 77 | 126 | 2.0 | 16.0 | 0.00 | 0.00 | 0.00 | 43 | 1006.5 |
| 20260505230003 | 77 | 181 | 4.0 | 18.0 | 0.00 | 0.00 | 0.00 | 43 | 1006.4 |
| 20260505225503 | 78 | 123 | 4.0 | 18.0 | 0.00 | 0.00 | 0.00 | 42 | 1006.3 |
| 20260505225003 | 78 | 212 | 5.0 | 20.0 | 0.00 | 0.00 | 0.00 | 42 | 1006.3 |
| 20260505224505 | 78 | 200 | 4.0 | 20.0 | 0.00 | 0.00 | 0.00 | 41 | 1006.2 |
| 20260505224002 | 79 | 172 | 5.0 | 20.0 | 0.00 | 0.00 | 0.00 | 40 | 1006.0 |
| 20260505223504 | 79 | 90 | 7.0 | 18.0 | 0.00 | 0.00 | 0.00 | 39 | 1005.9 |
| 20260505223007 | 80 | 212 | 2.0 | 15.0 | 0.00 | 0.00 | 0.00 | 39 | 1005.9 |
| 20260505222503 | 80 | 101 | 5.0 | 21.0 | 0.00 | 0.00 | 0.00 | 38 | 1005.8 |
| 20260505222003 | 81 | 269 | 3.0 | 21.0 | 0.00 | 0.00 | 0.00 | 38 | 1005.6 |
| 20260505221509 | 81 | 183 | 5.0 | 21.0 | 0.00 | 0.00 | 0.00 | 37 | 1005.5 |
| 20260505221002 | 81 | 148 | 3.0 | 19.0 | 0.00 | 0.00 | 0.00 | 37 | 1005.4 |
| 20260505220502 | 81 | 242 | 2.0 | 18.0 | 0.00 | 0.00 | 0.00 | 36 | 1005.3 |
| 20260505220008 | 81 | 187 | 8.0 | 18.0 | 0.00 | 0.00 | 0.00 | 35 | 1005.1 |
| 20260505215504 | 81 | 184 | 3.0 | 13.0 | 0.00 | 0.00 | 0.00 | 35 | 1005.1 |
| 20260505215004 | 82 | 209 | 4.0 | 15.0 | 0.00 | 0.00 | 0.00 | 34 | 1005.2 |
| 20260505214513 | 82 | 204 | 4.0 | 15.0 | 0.00 | 0.00 | 0.00 | 34 | 1005.3 |
| 20260505214004 | 82 | 214 | 4.0 | 17.0 | 0.00 | 0.00 | 0.00 | 34 | 1005.1 |
| 20260505213505 | 82 | 237 | 8.0 | 20.0 | 0.00 | 0.00 | 0.00 | 33 | 1005.1 |
| 20260505213007 | 82 | 188 | 5.0 | 20.0 | 0.00 | 0.00 | 0.00 | 32 | 1005.0 |
| 20260505212503 | 82 | 166 | 4.0 | 16.0 | 0.00 | 0.00 | 0.00 | 32 | 1004.9 |
| 20260505212003 | 82 | 158 | 4.0 | 21.0 | 0.00 | 0.00 | 0.00 | 32 | 1005.0 |
| 20260505211509 | 83 | 136 | 7.0 | 21.0 | 0.00 | 0.00 | 0.00 | 31 | 1005.0 |
| 20260505211003 | 83 | 161 | 8.0 | 22.0 | 0.00 | 0.00 | 0.00 | 31 | 1004.8 |
| 20260505210502 | 83 | 187 | 8.0 | 22.0 | 0.00 | 0.00 | 0.00 | 30 | 1004.9 |
| 20260505210012 | 83 | 184 | 3.0 | 18.0 | 0.00 | 0.00 | 0.00 | 31 | 1004.9 |
| 20260505205504 | 84 | 203 | 7.0 | 17.0 | 0.00 | 0.00 | 0.00 | 30 | 1004.8 |
| 20260505205004 | 84 | 177 | 4.0 | 17.0 | 0.00 | 0.00 | 0.00 | 30 | 1004.9 |
| 20260505204514 | 84 | 112 | 7.0 | 17.0 | 0.00 | 0.00 | 0.00 | 29 | 1004.9 |
| 20260505204004 | 85 | 144 | 4.0 | 19.0 | 0.00 | 0.00 | 0.00 | 29 | 1004.9 |
| 20260505203504 | 85 | 195 | 3.0 | 19.0 | 0.00 | 0.00 | 0.00 | 29 | 1004.9 |
| 20260505203023 | 85 | 178 | 4.0 | 16.0 | 0.00 | 0.00 | 0.00 | 29 | 1004.9 |
| 20260505202504 | 85 | 209 | 5.0 | 16.0 | 0.00 | 0.00 | 0.00 | 29 | 1004.9 |
| 20260505202004 | 85 | 256 | 4.0 | 16.0 | 0.00 | 0.00 | 0.00 | 29 | 1004.8 |
| 20260505201506 | 85 | 158 | 4.0 | 23.0 | 0.00 | 0.00 | 0.00 | 29 | 1004.8 |
| 20260505201003 | 85 | 204 | 3.0 | 23.0 | 0.00 | 0.00 | 0.00 | 30 | 1005.2 |
| 20260505200505 | 85 | 231 | 7.0 | 24.0 | 0.00 | 0.00 | 0.00 | 29 | 1005.0 |
| 20260505200009 | 86 | 200 | 9.0 | 24.0 | 0.00 | 0.00 | 0.00 | 28 | 1005.1 |
| 20260505195506 | 87 | 162 | 6.0 | 16.0 | 0.00 | 0.00 | 0.00 | 29 | 1005.1 |
| 20260505195006 | 87 | 189 | 4.0 | 18.0 | 0.00 | 0.00 | 0.00 | 29 | 1005.2 |
| 20260505194516 | 87 | 205 | 4.0 | 18.0 | 0.00 | 0.00 | 0.00 | 31 | 1005.0 |
| 20260505194007 | 86 | 199 | 5.0 | 17.0 | 0.00 | 0.00 | 0.00 | 31 | 1004.9 |
| 20260505193504 | 86 | 217 | 5.0 | 16.0 | 0.00 | 0.00 | 0.00 | 32 | 1004.9 |
| 20260505193014 | 86 | 150 | 6.0 | 21.0 | 0.00 | 0.00 | 0.00 | 30 | 1005.1 |
| 20260505192504 | 86 | 123 | 3.0 | 21.0 | 0.00 | 0.00 | 0.00 | 31 | 1004.9 |
| 20260505192007 | 86 | 215 | 7.0 | 21.0 | 0.00 | 0.00 | 0.00 | 30 | 1005.1 |
| 20260505191516 | 86 | 217 | 5.0 | 20.0 | 0.00 | 0.00 | 0.00 | 30 | 1005.2 |
| 20260505191004 | 86 | 191 | 5.0 | 20.0 | 0.00 | 0.00 | 0.00 | 30 | 1005.2 |
| 20260505190503 | 86 | 153 | 5.0 | 15.0 | 0.00 | 0.00 | 0.00 | 31 | 1005.5 |
| 20260505190008 | 86 | 198 | 2.0 | 19.0 | 0.00 | 0.00 | 0.00 | 33 | 1005.4 |
| 20260505185503 | 86 | 160 | 4.0 | 19.0 | 0.00 | 0.00 | 0.00 | 33 | 1005.6 |
| 20260505185007 | 86 | 210 | 5.0 | 15.0 | 0.00 | 0.00 | 0.00 | 34 | 1005.6 |
| 20260505184522 | 85 | 186 | 3.0 | 17.0 | 0.00 | 0.00 | 0.00 | 36 | 1005.7 |
| 20260505184004 | 84 | 199 | 9.0 | 17.0 | 0.00 | 0.00 | 0.00 | 35 | 1006.0 |
| 20260505183504 | 84 | 213 | 4.0 | 17.0 | 0.00 | 0.00 | 0.00 | 35 | 1005.9 |
| 20260505183021 | 85 | 157 | 5.0 | 16.0 | 0.00 | 0.00 | 0.00 | 35 | 1005.9 |
| 20260505182504 | 84 | 165 | 7.0 | 17.0 | 0.00 | 0.00 | 0.00 | 36 | 1006.0 |
| 20260505182007 | 84 | 216 | 4.0 | 17.0 | 0.00 | 0.00 | 0.00 | 36 | 1006.0 |
| 20260505181521 | 84 | 148 | 5.0 | 16.0 | 0.00 | 0.00 | 0.00 | 37 | 1006.1 |
| 20260505181008 | 83 | 239 | 4.0 | 14.0 | 0.00 | 0.00 | 0.00 | 37 | 1006.2 |
| 20260505180508 | 83 | 191 | 4.0 | 15.0 | 0.00 | 0.00 | 0.00 | 36 | 1006.2 |
| 20260505180026 | 84 | 134 | 5.0 | 15.0 | 0.00 | 0.00 | 0.00 | 36 | 1006.0 |
| 20260505175506 | 84 | 139 | 3.0 | 15.0 | 0.00 | 0.00 | 0.00 | 36 | 1006.4 |
| 20260505175004 | 85 | 216 | 7.0 | 16.0 | 0.00 | 0.00 | 0.00 | 34 | 1006.6 |
| 20260505174511 | 85 | 209 | 3.0 | 16.0 | 0.00 | 0.00 | 0.00 | 36 | 1006.5 |
| 20260505174006 | 85 | 146 | 2.0 | 14.0 | 0.00 | 0.00 | 0.00 | 35 | 1006.6 |
| 20260505173505 | 86 | 214 | 3.0 | 13.0 | 0.00 | 0.00 | 0.00 | 35 | 1006.8 |
| 20260505173014 | 86 | 150 | 5.0 | 13.0 | 0.00 | 0.00 | 0.00 | 35 | 1006.7 |
| 20260505172504 | 86 | 139 | 0.0 | 12.0 | 0.00 | 0.00 | 0.00 | 37 | 1006.7 |
| 20260505172008 | 85 | 250 | 3.0 | 12.0 | 0.00 | 0.00 | 0.00 | 36 | 1006.8 |
| 20260505171517 | 85 | 174 | 3.0 | 10.0 | 0.00 | 0.00 | 0.00 | 36 | 1006.9 |
| 20260505171008 | 85 | 175 | 3.0 | 14.0 | 0.00 | 0.00 | 0.00 | 36 | 1007.0 |
| 20260505170508 | 84 | 212 | 3.0 | 14.0 | 0.00 | 0.00 | 0.00 | 38 | 1007.2 |
| 20260505170021 | 84 | 185 | 2.0 | 14.0 | 0.00 | 0.00 | 0.00 | 37 | 1007.4 |
| 20260505165506 | 85 | 181 | 2.0 | 14.0 | 0.00 | 0.00 | 0.00 | 36 | 1007.6 |
| 20260505165008 | 86 | 211 | 3.0 | 16.0 | 0.00 | 0.00 | 0.00 | 36 | 1007.5 |
| 20260505164523 | 86 | 182 | 3.0 | 16.0 | 0.00 | 0.00 | 0.00 | 36 | 1007.6 |
| 20260505164008 | 86 | 194 | 3.0 | 13.0 | 0.00 | 0.00 | 0.00 | 36 | 1007.7 |
| 20260505163509 | 85 | 186 | 1.0 | 11.0 | 0.00 | 0.00 | 0.00 | 35 | 1007.7 |
| 20260505163012 | 85 | 185 | 2.0 | 11.0 | 0.00 | 0.00 | 0.00 | 35 | 1007.7 |
| 20260505162505 | 85 | 103 | 1.0 | 12.0 | 0.00 | 0.00 | 0.00 | 36 | 1007.8 |
| 20260505162005 | 84 | 209 | 4.0 | 13.0 | 0.00 | 0.00 | 0.00 | 36 | 1007.7 |
| 20260505161517 | 83 | 243 | 4.0 | 13.0 | 0.00 | 0.00 | 0.00 | 36 | 1008.0 |
| 20260505161008 | 83 | 185 | 2.0 | 13.0 | 0.00 | 0.00 | 0.00 | 40 | 1008.1 |
| 20260505160507 | 83 | 117 | 1.0 | 14.0 | 0.00 | 0.00 | 0.00 | 38 | 1008.3 |
| 20260505153029 | 80 | 198 | 1.0 | 12.0 | 0.00 | 0.00 | 0.00 | 43 | 1009.0 |
| 20260505152508 | 79 | 183 | 1.0 | 12.0 | 0.00 | 0.00 | 0.00 | 43 | 1009.2 |
| 20260505152008 | 79 | 195 | 4.0 | 16.0 | 0.00 | 0.00 | 0.00 | 41 | 1009.1 |
| 20260505151512 | 79 | 207 | 3.0 | 16.0 | 0.00 | 0.00 | 0.00 | 43 | 1009.1 |
| 20260505151004 | 79 | 159 | 3.0 | 9.0 | 0.00 | 0.00 | 0.00 | 43 | 1009.1 |
| 20260505150504 | 78 | 187 | 1.0 | 8.0 | 0.00 | 0.00 | 0.00 | 44 | 1009.1 |
| 20260505140511 | 70 | 181 | 0.0 | 8.0 | 0.00 | 0.00 | 0.00 | 55 | 1009.5 |
| 20260505125011 | 63 | 124 | 1.0 | 7.0 | 0.00 | 0.00 | 0.00 | 63 | 1009.7 |
| 20260505124527 | 63 | 155 | 0.0 | 7.0 | 0.00 | 0.00 | 0.00 | 64 | 1009.7 |
| 20260505124007 | 62 | 206 | 1.0 | 7.0 | 0.00 | 0.00 | 0.00 | 65 | 1009.7 |
| 20260505123506 | 62 | 226 | 1.0 | 9.0 | 0.00 | 0.00 | 0.00 | 66 | 1009.8 |
| 20260505123023 | 61 | 131 | 0.0 | 9.0 | 0.00 | 0.00 | 0.00 | 66 | 1009.6 |
| 20260505122507 | 61 | 207 | 2.0 | 9.0 | 0.00 | 0.00 | 0.00 | 68 | 1009.6 |
| 20260505122010 | 60 | 136 | 0.0 | 8.0 | 0.00 | 0.00 | 0.00 | 68 | 1009.7 |
| 20260505121524 | 60 | 130 | 0.0 | 8.0 | 0.00 | 0.00 | 0.00 | 69 | 1009.8 |
| 20260505121009 | 59 | 203 | 1.0 | 6.0 | 0.00 | 0.00 | 0.00 | 69 | 1009.9 |
| 20260505120507 | 59 | 162 | 1.0 | 5.0 | 0.00 | 0.00 | 0.00 | 71 | 1009.8 |
| 20260505120038 | 58 | 134 | 0.0 | 5.0 | 0.00 | 0.00 | 0.00 | 71 | 1009.8 |
| 20260505115507 | 58 | 113 | 0.0 | 4.0 | 0.00 | 0.00 | 0.00 | 72 | 1009.9 |
| 20260505115007 | 58 | 205 | 0.0 | 5.0 | 0.00 | 0.00 | 0.00 | 73 | 1010.0 |
| 20260505114527 | 57 | 150 | 0.0 | 5.0 | 0.00 | 0.00 | 0.00 | 73 | 1009.7 |
| 20260505114004 | 57 | 151 | 0.0 | 5.0 | 0.00 | 0.00 | 0.00 | 73 | 1009.7 |
| 20260505113504 | 57 | 208 | 0.0 | 6.0 | 0.00 | 0.00 | 0.00 | 74 | 1009.8 |
| 20260505113020 | 56 | 184 | 0.0 | 8.0 | 0.00 | 0.00 | 0.00 | 75 | 1009.7 |
| 20260505112508 | 56 | 153 | 1.0 | 8.0 | 0.00 | 0.00 | 0.00 | 75 | 1009.6 |
| 20260505112008 | 55 | 162 | 2.0 | 7.0 | 0.00 | 0.00 | 0.00 | 77 | 1009.7 |
| 20260505111530 | 54 | 207 | 2.0 | 7.0 | 0.00 | 0.00 | 0.00 | 78 | 1009.7 |
| 20260505111008 | 54 | 184 | 0.0 | 5.0 | 0.00 | 0.00 | 0.00 | 80 | 1009.6 |
| 20260505110504 | 53 | 167 | 0.0 | 2.0 | 0.00 | 0.00 | 0.00 | 81 | 1009.5 |
| 20260505102007 | 48 | 224 | 0.0 | 0.0 | 0.00 | 0.00 | 0.00 | 85 | 1009.5 |
| 20260505101521 | 48 | 224 | 0.0 | 0.0 | 0.00 | 0.00 | 0.00 | 85 | 1009.6 |
| 20260505101011 | 48 | 224 | 0.0 | 0.0 | 0.00 | 0.00 | 0.00 | 84 | 1009.6 |
| 20260505100509 | 48 | 224 | 0.0 | 0.0 | 0.00 | 0.00 | 0.00 | 84 | 1009.5 |
| 20260505100030 | 48 | 224 | 0.0 | 0.0 | 0.00 | 0.00 | 0.00 | 83 | 1009.5 |
| 20260505095507 | 48 | 224 | 0.0 | 0.0 | 0.00 | 0.00 | 0.00 | 83 | 1009.5 |
| 20260505095008 | 48 | 224 | 0.0 | 0.0 | 0.00 | 0.00 | 0.00 | 83 | 1009.6 |
| 20260505094510 | 48 | 179 | 0.0 | 0.0 | 0.00 | 0.00 | 0.00 | 83 | 1009.6 |
| 20260505094003 | 49 | 181 | 0.0 | 0.0 | 0.00 | 0.00 | 0.00 | 83 | 1009.6 |
| 20260505093504 | 49 | 181 | 0.0 | 0.0 | 0.00 | 0.00 | 0.00 | 83 | 1009.7 |
| 20260505093014 | 49 | 181 | 0.0 | 0.0 | 0.00 | 0.00 | 0.00 | 83 | 1009.6 |
| 20260505092505 | 49 | 181 | 0.0 | 0.0 | 0.00 | 0.00 | 0.00 | 82 | 1009.6 |
| 20260505092004 | 49 | 181 | 0.0 | 0.0 | 0.00 | 0.00 | 0.00 | 82 | 1009.5 |
| 20260505091520 | 49 | 181 | 0.0 | 0.0 | 0.00 | 0.00 | 0.00 | 82 | 1009.6 |
| 20260505091009 | 49 | 181 | 0.0 | 0.0 | 0.00 | 0.00 | 0.00 | 82 | 1009.7 |
| 20260505090508 | 49 | 181 | 0.0 | 0.0 | 0.00 | 0.00 | 0.00 | 82 | 1009.6 |
| 20260505090025 | 49 | 181 | 0.0 | 0.0 | 0.00 | 0.00 | 0.00 | 81 | 1009.6 |
| 20260505085510 | 49 | 181 | 0.0 | 0.0 | 0.00 | 0.00 | 0.00 | 81 | 1009.6 |
| 20260505085009 | 49 | 181 | 0.0 | 0.0 | 0.00 | 0.00 | 0.00 | 81 | 1009.6 |
| 20260505084538 | 49 | 181 | 0.0 | 0.0 | 0.00 | 0.00 | 0.00 | 81 | 1009.6 |
| 20260505084007 | 49 | 181 | 0.0 | 0.0 | 0.00 | 0.00 | 0.00 | 81 | 1009.7 |
| 20260505083509 | 49 | 181 | 0.0 | 0.0 | 0.00 | 0.00 | 0.00 | 80 | 1009.7 |
| 20260505083043 | 50 | 181 | 0.0 | 0.0 | 0.00 | 0.00 | 0.00 | 80 | 1009.7 |
| 20260505082507 | 50 | 181 | 0.0 | 0.0 | 0.00 | 0.00 | 0.00 | 79 | 1009.7 |
| 20260505082004 | 50 | 181 | 0.0 | 0.0 | 0.00 | 0.00 | 0.00 | 79 | 1009.8 |
| 20260505081515 | 50 | 181 | 0.0 | 0.0 | 0.00 | 0.00 | 0.00 | 79 | 1009.8 |
| 20260505081009 | 50 | 181 | 0.0 | 0.0 | 0.00 | 0.00 | 0.00 | 79 | 1009.9 |
| 20260505080506 | 50 | 181 | 0.0 | 0.0 | 0.00 | 0.00 | 0.00 | 78 | 1009.9 |
| 20260505080033 | 50 | 181 | 0.0 | 0.0 | 0.00 | 0.00 | 0.00 | 78 | 1009.9 |
| 20260505075505 | 50 | 181 | 0.0 | 0.0 | 0.00 | 0.00 | 0.00 | 78 | 1009.9 |
| 20260505075007 | 51 | 181 | 0.0 | 0.0 | 0.00 | 0.00 | 0.00 | 78 | 1009.9 |
| 20260505074522 | 51 | 181 | 0.0 | 0.0 | 0.00 | 0.00 | 0.00 | 78 | 1010.0 |
| 20260505074009 | 51 | 219 | 0.0 | 0.0 | 0.00 | 0.00 | 0.00 | 78 | 1010.1 |
| 20260505073508 | 51 | 219 | 0.0 | 0.0 | 0.00 | 0.00 | 0.00 | 77 | 1010.1 |
| 20260505073039 | 51 | 219 | 0.0 | 2.0 | 0.00 | 0.00 | 0.00 | 77 | 1010.0 |
| 20260505072509 | 51 | 167 | 0.0 | 2.0 | 0.00 | 0.00 | 0.00 | 76 | 1009.9 |
| 20260505072009 | 51 | 165 | 0.0 | 0.0 | 0.00 | 0.00 | 0.00 | 76 | 1009.9 |
| 20260505071540 | 51 | 165 | 0.0 | 0.0 | 0.00 | 0.00 | 0.00 | 76 | 1009.9 |
| 20260505071005 | 51 | 165 | 0.0 | 0.0 | 0.00 | 0.00 | 0.00 | 75 | 1009.9 |
| 20260505070505 | 51 | 165 | 0.0 | 0.0 | 0.00 | 0.00 | 0.00 | 75 | 1010.0 |
| 20260505070018 | 51 | 165 | 0.0 | 0.0 | 0.00 | 0.00 | 0.00 | 75 | 1010.1 |
| 20260505065506 | 52 | 165 | 0.0 | 0.0 | 0.00 | 0.00 | 0.00 | 74 | 1010.1 |
| 20260505065006 | 52 | 165 | 0.0 | 0.0 | 0.00 | 0.00 | 0.00 | 73 | 1010.1 |
| 20260505064520 | 52 | 165 | 0.0 | 0.0 | 0.00 | 0.00 | 0.00 | 72 | 1010.1 |
| 20260505064007 | 52 | 165 | 0.0 | 0.0 | 0.00 | 0.00 | 0.00 | 72 | 1010.2 |
| 20260505063508 | 53 | 165 | 0.0 | 0.0 | 0.00 | 0.00 | 0.00 | 71 | 1010.3 |
| 20260505063032 | 53 | 165 | 0.0 | 0.0 | 0.00 | 0.00 | 0.00 | 71 | 1010.3 |
| 20260505062513 | 53 | 165 | 0.0 | 0.0 | 0.00 | 0.00 | 0.00 | 71 | 1010.4 |
| 20260505062011 | 53 | 165 | 0.0 | 0.0 | 0.00 | 0.00 | 0.00 | 70 | 1010.3 |
| 20260505061530 | 53 | 165 | 0.0 | 0.0 | 0.00 | 0.00 | 0.00 | 69 | 1010.4 |
| 20260505061009 | 54 | 165 | 0.0 | 0.0 | 0.00 | 0.00 | 0.00 | 69 | 1010.4 |
| 20260505060514 | 54 | 165 | 0.0 | 0.0 | 0.00 | 0.00 | 0.00 | 68 | 1010.4 |
| 20260505060051 | 54 | 165 | 0.0 | 0.0 | 0.00 | 0.00 | 0.00 | 68 | 1010.4 |
| 20260505055514 | 54 | 165 | 0.0 | 0.0 | 0.00 | 0.00 | 0.00 | 67 | 1010.4 |
| 20260505055006 | 55 | 165 | 0.0 | 0.0 | 0.00 | 0.00 | 0.00 | 67 | 1010.5 |
| 20260505054522 | 55 | 177 | 0.0 | 0.0 | 0.00 | 0.00 | 0.00 | 66 | 1010.5 |
| 20260505054005 | 55 | 178 | 0.0 | 0.0 | 0.00 | 0.00 | 0.00 | 66 | 1010.5 |
| 20260505053504 | 55 | 179 | 0.0 | 0.0 | 0.00 | 0.00 | 0.00 | 65 | 1010.6 |
| 20260505053006 | 56 | 179 | 0.0 | 0.0 | 0.00 | 0.00 | 0.00 | 65 | 1010.5 |
| 20260505052503 | 56 | 179 | 0.0 | 0.0 | 0.00 | 0.00 | 0.00 | 64 | 1010.5 |
| 20260505052003 | 56 | 179 | 0.0 | 0.0 | 0.00 | 0.00 | 0.00 | 64 | 1010.5 |
| 20260505051507 | 56 | 143 | 0.0 | 0.0 | 0.00 | 0.00 | 0.00 | 63 | 1010.5 |
| 20260505051005 | 56 | 143 | 0.0 | 2.0 | 0.00 | 0.00 | 0.00 | 63 | 1010.5 |
| 20260505050503 | 56 | 121 | 0.0 | 3.0 | 0.00 | 0.00 | 0.00 | 63 | 1010.5 |
| 20260505041508 | 57 | 220 | 0.0 | 4.0 | 0.00 | 0.00 | 0.00 | 60 | 1010.5 |
| 20260505041004 | 58 | 186 | 0.0 | 4.0 | 0.00 | 0.00 | 0.00 | 59 | 1010.4 |
| 20260505040502 | 58 | 195 | 0.0 | 4.0 | 0.00 | 0.00 | 0.00 | 59 | 1010.3 |
| 20260505040006 | 58 | 212 | 0.0 | 4.0 | 0.00 | 0.00 | 0.00 | 58 | 1010.4 |
| 20260505035501 | 58 | 166 | 0.0 | 3.0 | 0.00 | 0.00 | 0.00 | 58 | 1010.3 |
| 20260505035005 | 58 | 160 | 0.0 | 6.0 | 0.00 | 0.00 | 0.00 | 58 | 1010.2 |
| 20260505034514 | 58 | 132 | 0.0 | 6.0 | 0.00 | 0.00 | 0.00 | 57 | 1010.2 |
| 20260505034008 | 59 | 150 | 1.0 | 6.0 | 0.00 | 0.00 | 0.00 | 57 | 1010.1 |
| 20260505033506 | 59 | 173 | 0.0 | 3.0 | 0.00 | 0.00 | 0.00 | 57 | 1010.1 |
| 20260505033019 | 59 | 146 | 0.0 | 3.0 | 0.00 | 0.00 | 0.00 | 57 | 1010.1 |